| time (UTC) | temp F | wind direction | speed MPH | gust MPH | rain 1hr in | rain 24hr in | rain mn in | humidity % | barometer mb |
| 20260504231329 | 80 | 162 | 1.0 | 2.0 | 0.00 | 0.00 | 0.00 | 47 | 1000.9 |
| 20260504230825 | 80 | 102 | 0.0 | 3.0 | 0.00 | 0.00 | 0.00 | 46 | 1001.0 |
| 20260504230323 | 80 | 85 | 2.0 | 3.0 | 0.00 | 0.00 | 0.00 | 46 | 1001.0 |
| 20260504225822 | 80 | 134 | 1.0 | 3.0 | 0.00 | 0.00 | 0.00 | 45 | 1000.9 |
| 20260504225317 | 80 | 95 | 0.0 | 1.0 | 0.00 | 0.00 | 0.00 | 46 | 1001.2 |
| 20260504224815 | 81 | 115 | 0.0 | 1.0 | 0.00 | 0.00 | 0.00 | 45 | 1000.9 |
| 20260504224312 | 81 | 185 | 1.0 | 2.0 | 0.00 | 0.00 | 0.00 | 44 | 1001.1 |
| 20260504223808 | 81 | 161 | 0.0 | 1.0 | 0.00 | 0.00 | 0.00 | 42 | 1000.8 |
| 20260504223304 | 81 | 205 | 2.0 | 2.0 | 0.00 | 0.00 | 0.00 | 43 | 1000.8 |
| 20260504222801 | 81 | 229 | 3.0 | 6.0 | 0.00 | 0.00 | 0.00 | 41 | 1001.0 |
| 20260504222258 | 82 | 120 | 2.0 | 3.0 | 0.00 | 0.00 | 0.00 | 38 | 1001.1 |
| 20260504221755 | 82 | 224 | 0.0 | 2.0 | 0.00 | 0.00 | 0.00 | 38 | 1000.9 |
| 20260504221252 | 82 | 178 | 1.0 | 3.0 | 0.00 | 0.00 | 0.00 | 38 | 1001.0 |
| 20260504220749 | 82 | 238 | 4.0 | 5.0 | 0.00 | 0.00 | 0.00 | 38 | 1001.0 |
| 20260504220246 | 82 | 148 | 1.0 | 2.0 | 0.00 | 0.00 | 0.00 | 39 | 1001.0 |
| 20260504215743 | 82 | 228 | 2.0 | 3.0 | 0.00 | 0.00 | 0.00 | 38 | 1001.0 |
| 20260504215240 | 82 | 198 | 2.0 | 3.0 | 0.00 | 0.00 | 0.00 | 38 | 1001.0 |
| 20260504214736 | 82 | 223 | 2.0 | 3.0 | 0.00 | 0.00 | 0.00 | 38 | 1001.0 |
| 20260504214232 | 82 | 187 | 1.0 | 2.0 | 0.00 | 0.00 | 0.00 | 36 | 1000.9 |
| 20260504213729 | 82 | 230 | 5.0 | 5.0 | 0.00 | 0.00 | 0.00 | 36 | 1001.1 |
| 20260504213226 | 82 | 202 | 1.0 | 3.0 | 0.00 | 0.00 | 0.00 | 37 | 1000.9 |
| 20260504212723 | 83 | 216 | 1.0 | 3.0 | 0.00 | 0.00 | 0.00 | 38 | 1001.0 |
| 20260504212219 | 82 | 181 | 1.0 | 3.0 | 0.00 | 0.00 | 0.00 | 37 | 1001.1 |
| 20260504211717 | 82 | 223 | 2.0 | 2.0 | 0.00 | 0.00 | 0.00 | 36 | 1001.2 |
| 20260504211213 | 82 | 220 | 1.0 | 2.0 | 0.00 | 0.00 | 0.00 | 36 | 1001.2 |
| 20260504210710 | 82 | 88 | 0.0 | 2.0 | 0.00 | 0.00 | 0.00 | 36 | 1001.2 |
| 20260504210207 | 83 | 199 | 0.0 | 2.0 | 0.00 | 0.00 | 0.00 | 37 | 1001.2 |
| 20260504205704 | 84 | 228 | 4.0 | 5.0 | 0.00 | 0.00 | 0.00 | 35 | 1001.0 |
| 20260504205201 | 83 | 168 | 1.0 | 3.0 | 0.00 | 0.00 | 0.00 | 36 | 1001.1 |
| 20260504204700 | 83 | 162 | 2.0 | 3.0 | 0.00 | 0.00 | 0.00 | 37 | 1001.3 |
| 20260504204158 | 83 | 246 | 3.0 | 6.0 | 0.00 | 0.00 | 0.00 | 38 | 1001.3 |
| 20260504203657 | 83 | 193 | 1.0 | 2.0 | 0.00 | 0.00 | 0.00 | 39 | 1001.5 |
| 20260504203154 | 83 | 181 | 0.0 | 3.0 | 0.00 | 0.00 | 0.00 | 40 | 1001.4 |
| 20260504202648 | 83 | 222 | 2.0 | 3.0 | 0.00 | 0.00 | 0.00 | 36 | 1001.5 |
| 20260504202146 | 83 | 35 | 1.0 | 2.0 | 0.00 | 0.00 | 0.00 | 37 | 1001.6 |
| 20260504201643 | 83 | 240 | 2.0 | 2.0 | 0.00 | 0.00 | 0.00 | 37 | 1001.6 |
| 20260504201140 | 83 | 206 | 2.0 | 3.0 | 0.00 | 0.00 | 0.00 | 38 | 1001.5 |
| 20260504200637 | 82 | 253 | 2.0 | 3.0 | 0.00 | 0.00 | 0.00 | 41 | 1001.5 |
| 20260504200134 | 83 | 108 | 0.0 | 3.0 | 0.00 | 0.00 | 0.00 | 40 | 1001.7 |
| 20260504195630 | 83 | 199 | 3.0 | 5.0 | 0.00 | 0.00 | 0.00 | 39 | 1001.5 |
| 20260504195126 | 82 | 352 | 1.0 | 2.0 | 0.00 | 0.00 | 0.00 | 39 | 1001.7 |
| 20260504194623 | 82 | 246 | 2.0 | 3.0 | 0.00 | 0.00 | 0.00 | 40 | 1001.8 |
| 20260504194119 | 82 | 172 | 2.0 | 5.0 | 0.00 | 0.00 | 0.00 | 42 | 1001.8 |
| 20260504193615 | 81 | 156 | 3.0 | 5.0 | 0.00 | 0.00 | 0.00 | 43 | 1001.6 |
| 20260504193114 | 81 | 236 | 4.0 | 6.0 | 0.00 | 0.00 | 0.00 | 43 | 1001.5 |
| 20260504192612 | 81 | 251 | 1.0 | 5.0 | 0.00 | 0.00 | 0.00 | 41 | 1001.8 |
| 20260504192109 | 81 | 270 | 2.0 | 3.0 | 0.00 | 0.00 | 0.00 | 43 | 1001.8 |
| 20260504191608 | 81 | 249 | 3.0 | 6.0 | 0.00 | 0.00 | 0.00 | 42 | 1001.7 |
| 20260504191103 | 80 | 187 | 2.0 | 3.0 | 0.00 | 0.00 | 0.00 | 42 | 1001.5 |
| 20260504190600 | 80 | 258 | 2.0 | 6.0 | 0.00 | 0.00 | 0.00 | 40 | 1001.6 |
| 20260504190056 | 81 | 199 | 0.0 | 5.0 | 0.00 | 0.00 | 0.00 | 43 | 1001.6 |
| 20260504185553 | 80 | 198 | 0.0 | 2.0 | 0.00 | 0.00 | 0.00 | 44 | 1001.9 |
| 20260504185050 | 80 | 273 | 2.0 | 3.0 | 0.00 | 0.00 | 0.00 | 45 | 1001.8 |
| 20260504184545 | 79 | 216 | 2.0 | 3.0 | 0.00 | 0.00 | 0.00 | 44 | 1001.9 |
| 20260504184040 | 81 | 218 | 4.0 | 5.0 | 0.00 | 0.00 | 0.00 | 43 | 1001.7 |
| 20260504183538 | 80 | 61 | 0.0 | 3.0 | 0.00 | 0.00 | 0.00 | 43 | 1001.8 |
| 20260504183036 | 80 | 193 | 3.0 | 3.0 | 0.00 | 0.00 | 0.00 | 44 | 1002.0 |
| 20260504182532 | 79 | 113 | 0.0 | 2.0 | 0.00 | 0.00 | 0.00 | 45 | 1002.0 |
| 20260504182030 | 79 | 132 | 1.0 | 2.0 | 0.00 | 0.00 | 0.00 | 46 | 1001.8 |
| 20260504181527 | 79 | 221 | 4.0 | 5.0 | 0.00 | 0.00 | 0.00 | 47 | 1002.3 |
| 20260504181026 | 79 | 223 | 3.0 | 3.0 | 0.00 | 0.00 | 0.00 | 45 | 1001.9 |
| 20260504180524 | 79 | 160 | 1.0 | 2.0 | 0.00 | 0.00 | 0.00 | 45 | 1002.2 |
| 20260504180022 | 79 | 308 | 2.0 | 3.0 | 0.00 | 0.00 | 0.00 | 45 | 1002.2 |
| 20260504175519 | 78 | 145 | 1.0 | 3.0 | 0.00 | 0.00 | 0.00 | 46 | 1002.4 |
| 20260504175016 | 78 | 137 | 5.0 | 8.0 | 0.00 | 0.00 | 0.00 | 46 | 1002.5 |
| 20260504174514 | 78 | 31 | 1.0 | 2.0 | 0.00 | 0.00 | 0.00 | 46 | 1002.2 |
| 20260504174011 | 77 | 177 | 1.0 | 5.0 | 0.00 | 0.00 | 0.00 | 46 | 1002.4 |
| 20260504173507 | 77 | 326 | 2.0 | 3.0 | 0.00 | 0.00 | 0.00 | 48 | 1002.6 |
| 20260504173005 | 77 | 105 | 2.0 | 3.0 | 0.00 | 0.00 | 0.00 | 47 | 1002.5 |
| 20260504172501 | 77 | 262 | 2.0 | 3.0 | 0.00 | 0.00 | 0.00 | 46 | 1002.5 |
| 20260504171957 | 77 | 239 | 3.0 | 6.0 | 0.00 | 0.00 | 0.00 | 46 | 1002.7 |
| 20260504171454 | 77 | 120 | 1.0 | 2.0 | 0.00 | 0.00 | 0.00 | 47 | 1002.8 |
| 20260504170951 | 76 | 109 | 0.0 | 3.0 | 0.00 | 0.00 | 0.00 | 47 | 1002.6 |
| 20260504170447 | 75 | 220 | 2.0 | 2.0 | 0.00 | 0.00 | 0.00 | 48 | 1002.7 |
| 20260504160407 | 74 | 219 | 0.0 | 3.0 | 0.00 | 0.00 | 0.00 | 50 | 1002.8 |
| 20260504150831 | 71 | 148 | 2.0 | 5.0 | 0.00 | 0.00 | 0.00 | 51 | 1002.8 |
| 20260504150328 | 71 | 230 | 3.0 | 5.0 | 0.00 | 0.00 | 0.00 | 52 | 1003.1 |
| 20260504141258 | 68 | 188 | 2.0 | 5.0 | 0.00 | 0.00 | 0.00 | 56 | 1003.1 |
| 20260504140754 | 68 | 129 | 3.0 | 5.0 | 0.00 | 0.00 | 0.00 | 55 | 1003.2 |
| 20260504140250 | 68 | 210 | 3.0 | 3.0 | 0.00 | 0.00 | 0.00 | 56 | 1003.2 |
| 20260504130719 | 64 | 78 | 0.0 | 1.0 | 0.00 | 0.00 | 0.00 | 59 | 1003.6 |
| 20260504130214 | 64 | 90 | 0.0 | 0.0 | 0.00 | 0.00 | 0.00 | 61 | 1003.0 |
| 20260504120139 | 61 | 93 | 0.0 | 0.0 | 0.00 | 0.00 | 0.00 | 64 | 1003.3 |
| 20260504110606 | 61 | 90 | 0.0 | 0.0 | 0.00 | 0.00 | 0.00 | 63 | 1003.1 |
| 20260504100533 | 61 | 90 | 0.0 | 0.0 | 0.00 | 0.00 | 0.00 | 61 | 1004.0 |
| 20260504081927 | 65 | 97 | 0.0 | 0.0 | 0.00 | 0.00 | 0.00 | 53 | 1004.6 |
| 20260504081424 | 65 | 100 | 0.0 | 0.0 | 0.00 | 0.00 | 0.00 | 53 | 1004.8 |
| 20260504080920 | 65 | 128 | 0.0 | 0.0 | 0.00 | 0.00 | 0.00 | 53 | 1004.8 |
| 20260504080417 | 65 | 94 | 0.0 | 0.0 | 0.00 | 0.00 | 0.00 | 53 | 1004.9 |
| 20260504070344 | 67 | 115 | 0.0 | 0.0 | 0.00 | 0.00 | 0.00 | 51 | 1005.4 |
| 20260504050732 | 68 | 90 | 0.0 | 1.0 | 0.00 | 0.00 | 0.00 | 51 | 1006.3 |
| 20260504050229 | 69 | 119 | 0.0 | 0.0 | 0.00 | 0.00 | 0.00 | 50 | 1006.7 |
| 20260504045726 | 69 | 119 | 0.0 | 0.0 | 0.00 | 0.00 | 0.00 | 49 | 1006.8 |
| 20260504045221 | 70 | 64 | 1.0 | 3.0 | 0.00 | 0.00 | 0.00 | 48 | 1006.7 |
| 20260504044719 | 70 | 49 | 1.0 | 1.0 | 0.00 | 0.00 | 0.00 | 48 | 1007.3 |
| 20260504044216 | 70 | 67 | 0.0 | 2.0 | 0.00 | 0.00 | 0.00 | 48 | 1007.1 |
| 20260504043713 | 70 | 37 | 1.0 | 2.0 | 0.00 | 0.00 | 0.00 | 48 | 1007.6 |
| 20260504043210 | 70 | 1 | 1.0 | 2.0 | 0.00 | 0.00 | 0.00 | 49 | 1007.6 |
| 20260504042708 | 71 | 21 | 0.0 | 0.0 | 0.00 | 0.00 | 0.00 | 48 | 1007.3 |
| 20260504042204 | 71 | 68 | 0.0 | 1.0 | 0.00 | 0.00 | 0.00 | 47 | 1007.6 |
| 20260504041700 | 70 | 69 | 0.0 | 1.0 | 0.00 | 0.00 | 0.00 | 47 | 1007.2 |
| 20260504041155 | 70 | 72 | 1.0 | 3.0 | 0.00 | 0.00 | 0.00 | 48 | 1007.1 |
| 20260504040653 | 70 | 26 | 0.0 | 1.0 | 0.00 | 0.00 | 0.00 | 50 | 1007.0 |
| 20260504040150 | 69 | 59 | 1.0 | 3.0 | 0.00 | 0.00 | 0.00 | 50 | 1007.3 |
| 20260504035646 | 69 | 75 | 0.0 | 0.0 | 0.00 | 0.00 | 0.00 | 51 | 1007.5 |
| 20260504035143 | 69 | 54 | 0.0 | 0.0 | 0.00 | 0.00 | 0.00 | 52 | 1007.4 |
| 20260504034641 | 68 | 61 | 0.0 | 1.0 | 0.00 | 0.00 | 0.00 | 53 | 1007.3 |
| 20260504034138 | 68 | 67 | 0.0 | 1.0 | 0.00 | 0.00 | 0.00 | 54 | 1007.3 |
| 20260504033635 | 68 | 70 | 0.0 | 0.0 | 0.00 | 0.00 | 0.00 | 54 | 1007.4 |
| 20260504033133 | 69 | 72 | 0.0 | 0.0 | 0.00 | 0.00 | 0.00 | 54 | 1007.5 |
| 20260504032629 | 69 | 61 | 0.0 | 0.0 | 0.00 | 0.00 | 0.00 | 51 | 1007.6 |
| 20260504032126 | 69 | 57 | 0.0 | 0.0 | 0.00 | 0.00 | 0.00 | 52 | 1007.6 |
| 20260504031624 | 69 | 57 | 0.0 | 0.0 | 0.00 | 0.00 | 0.00 | 51 | 1007.5 |
| 20260504031120 | 69 | 57 | 0.0 | 0.0 | 0.00 | 0.00 | 0.00 | 51 | 1007.5 |
| 20260504030616 | 69 | 58 | 0.0 | 0.0 | 0.00 | 0.00 | 0.00 | 51 | 1007.1 |
| 20260504030113 | 69 | 67 | 0.0 | 0.0 | 0.00 | 0.00 | 0.00 | 51 | 1007.3 |
| 20260504025610 | 69 | 68 | 0.0 | 0.0 | 0.00 | 0.00 | 0.00 | 50 | 1007.1 |
| 20260504025107 | 70 | 67 | 0.0 | 0.0 | 0.00 | 0.00 | 0.00 | 49 | 1007.6 |
| 20260504024604 | 70 | 65 | 0.0 | 0.0 | 0.00 | 0.00 | 0.00 | 49 | 1007.4 |
| 20260504024101 | 70 | 62 | 0.0 | 0.0 | 0.00 | 0.00 | 0.00 | 49 | 1007.4 |
| 20260504023557 | 70 | 66 | 0.0 | 0.0 | 0.00 | 0.00 | 0.00 | 49 | 1007.3 |
| 20260504023054 | 70 | 65 | 0.0 | 0.0 | 0.00 | 0.00 | 0.00 | 49 | 1007.3 |
| 20260504022550 | 69 | 63 | 0.0 | 0.0 | 0.00 | 0.00 | 0.00 | 49 | 1007.4 |
| 20260504022046 | 70 | 63 | 0.0 | 0.0 | 0.00 | 0.00 | 0.00 | 49 | 1007.5 |
| 20260504021543 | 70 | 57 | 0.0 | 0.0 | 0.00 | 0.00 | 0.00 | 49 | 1007.4 |
| 20260504021040 | 70 | 59 | 0.0 | 0.0 | 0.00 | 0.00 | 0.00 | 49 | 1007.3 |
| 20260504020537 | 70 | 66 | 0.0 | 0.0 | 0.00 | 0.00 | 0.00 | 49 | 1007.4 |
| 20260504020034 | 71 | 57 | 0.0 | 0.0 | 0.00 | 0.00 | 0.00 | 47 | 1007.3 |
| 20260504015530 | 71 | 60 | 0.0 | 0.0 | 0.00 | 0.00 | 0.00 | 47 | 1007.1 |
| 20260504015026 | 71 | 18 | 0.0 | 0.0 | 0.00 | 0.00 | 0.00 | 47 | 1007.4 |
| 20260504014523 | 71 | 17 | 0.0 | 0.0 | 0.00 | 0.00 | 0.00 | 47 | 1007.1 |
| 20260504014020 | 71 | 17 | 0.0 | 0.0 | 0.00 | 0.00 | 0.00 | 46 | 1007.2 |
| 20260504013518 | 71 | 17 | 0.0 | 0.0 | 0.00 | 0.00 | 0.00 | 48 | 1007.1 |
| 20260504013015 | 72 | 17 | 0.0 | 0.0 | 0.00 | 0.00 | 0.00 | 47 | 1007.0 |
| 20260504012512 | 72 | 17 | 0.0 | 0.0 | 0.00 | 0.00 | 0.00 | 47 | 1007.1 |
| 20260504012009 | 72 | 17 | 0.0 | 0.0 | 0.00 | 0.00 | 0.00 | 46 | 1007.1 |
| 20260504011506 | 72 | 17 | 0.0 | 0.0 | 0.00 | 0.00 | 0.00 | 45 | 1007.2 |
| 20260504011001 | 73 | 17 | 0.0 | 0.0 | 0.00 | 0.00 | 0.00 | 44 | 1007.1 |
| 20260504010458 | 73 | 17 | 0.0 | 0.0 | 0.00 | 0.00 | 0.00 | 44 | 1007.0 |
| 20260504005953 | 73 | 17 | 0.0 | 0.0 | 0.00 | 0.00 | 0.00 | 44 | 1007.3 |
| 20260504005451 | 73 | 17 | 0.0 | 0.0 | 0.00 | 0.00 | 0.00 | 46 | 1007.3 |
| 20260504004948 | 75 | 17 | 0.0 | 0.0 | 0.00 | 0.00 | 0.00 | 42 | 1007.3 |
| 20260504004446 | 75 | 17 | 0.0 | 0.0 | 0.00 | 0.00 | 0.00 | 41 | 1007.2 |
| 20260504003943 | 75 | 17 | 0.0 | 0.0 | 0.00 | 0.00 | 0.00 | 40 | 1007.1 |
| 20260504003439 | 75 | 17 | 0.0 | 1.0 | 0.00 | 0.00 | 0.00 | 40 | 1007.1 |
| 20260504002935 | 75 | 17 | 0.0 | 0.0 | 0.00 | 0.00 | 0.00 | 39 | 1007.1 |
| 20260504002433 | 75 | 17 | 0.0 | 0.0 | 0.00 | 0.00 | 0.00 | 40 | 1007.3 |
| 20260504001930 | 76 | 17 | 0.0 | 0.0 | 0.00 | 0.00 | 0.00 | 39 | 1007.3 |
| 20260504001427 | 76 | 17 | 0.0 | 0.0 | 0.00 | 0.00 | 0.00 | 38 | 1007.3 |
| 20260504000924 | 77 | 17 | 0.0 | 0.0 | 0.00 | 0.00 | 0.00 | 37 | 1007.2 |
| 20260504000423 | 77 | 16 | 0.0 | 0.0 | 0.00 | 0.00 | 0.00 | 36 | 1007.5 |
| 20260503235918 | 77 | 16 | 0.0 | 1.0 | 0.00 | 0.00 | 0.00 | 36 | 1007.6 |
| 20260503235416 | 77 | 17 | 1.0 | 1.0 | 0.00 | 0.00 | 0.00 | 36 | 1007.5 |
| 20260503234913 | 78 | 17 | 1.0 | 1.0 | 0.00 | 0.00 | 0.00 | 35 | 1007.5 |
| 20260503234411 | 78 | 17 | 1.0 | 1.0 | 0.00 | 0.00 | 0.00 | 35 | 1007.7 |
| 20260503233908 | 78 | 23 | 1.0 | 1.0 | 0.00 | 0.00 | 0.00 | 35 | 1007.8 |
| 20260503233405 | 78 | 24 | 1.0 | 1.0 | 0.00 | 0.00 | 0.00 | 36 | 1007.7 |
| 20260503232901 | 79 | 326 | 1.0 | 2.0 | 0.00 | 0.00 | 0.00 | 35 | 1007.7 |
| 20260503232358 | 79 | 42 | 0.0 | 0.0 | 0.00 | 0.00 | 0.00 | 37 | 1007.5 |
| 20260503231856 | 79 | 139 | 1.0 | 2.0 | 0.00 | 0.00 | 0.00 | 35 | 1007.7 |